TimeAKDT,TemperatureF,Dew PointF,Humidity,Sea Level PressureIn,VisibilityMPH,Wind Direction,Wind SpeedMPH,Gust SpeedMPH,PrecipitationIn,Events,Conditions,WindDirDegrees,DateUTC
12:53 AM,55.0,51.1,86,29.68,10.0,Calm,Calm,-,N/A,,Overcast,0,2013-09-11 08:53:00
1:06 AM,53.6,50.0,88,29.67,10.0,Calm,Calm,-,N/A,,Overcast,0,2013-09-11 09:06:00
1:53 AM,55.0,51.1,86,29.66,10.0,Calm,Calm,-,0.00,Rain,Light Rain,0,2013-09-11 09:53:00
2:14 AM,55.4,51.8,88,29.65,2.0,Calm,Calm,-,0.07,Rain,Heavy Rain,0,2013-09-11 10:14:00
2:23 AM,53.6,51.8,94,29.65,2.5,Calm,Calm,-,0.11,Rain,Heavy Rain,0,2013-09-11 10:23:00
2:33 AM,53.6,51.8,94,29.64,1.5,Calm,Calm,-,0.19,Rain,Heavy Rain,0,2013-09-11 10:33:00
2:42 AM,53.6,50.0,88,29.64,1.5,SW,3.5,-,0.26,Rain,Heavy Rain,220,2013-09-11 10:42:00
2:48 AM,53.6,50.0,88,29.64,2.0,Calm,Calm,-,0.30,Rain,Heavy Rain,0,2013-09-11 10:48:00
2:53 AM,54.0,50.0,86,29.65,2.5,Calm,Calm,-,0.33,Rain,Heavy Rain,0,2013-09-11 10:53:00
3:00 AM,53.6,50.0,88,29.64,3.0,Calm,Calm,-,0.03,Rain,Heavy Rain,0,2013-09-11 11:00:00
3:19 AM,53.6,50.0,88,29.64,6.0,Calm,Calm,-,0.07,Rain,Rain,0,2013-09-11 11:19:00
3:53 AM,54.0,50.0,86,29.63,4.0,SW,3.5,-,0.19,Rain,Heavy Rain,230,2013-09-11 11:53:00
3:59 AM,53.6,51.8,94,29.63,2.5,SSW,3.5,-,0.02,Rain,Heavy Rain,200,2013-09-11 11:59:00
4:09 AM,53.6,50.0,88,29.63,3.0,SW,5.8,-,0.05,Rain,Rain,220,2013-09-11 12:09:00
4:12 AM,53.6,50.0,88,29.63,3.0,SW,6.9,-,0.06,Rain,Rain,220,2013-09-11 12:12:00
4:20 AM,53.6,50.0,88,29.62,2.5,Calm,Calm,-,0.07,Rain,Rain,0,2013-09-11 12:20:00
4:29 AM,53.6,51.8,94,29.62,3.0,SW,3.5,-,0.10,Rain,Rain,220,2013-09-11 12:29:00
4:51 AM,53.6,50.0,88,29.62,7.0,WSW,3.5,-,0.11,Rain,Light Rain,250,2013-09-11 12:51:00
4:53 AM,54.0,50.0,86,29.62,7.0,West,3.5,-,0.11,Rain,Light Rain,260,2013-09-11 12:53:00
5:45 AM,53.6,50.0,88,29.62,9.0,Calm,Calm,-,0.03,Rain,Light Rain,0,2013-09-11 13:45:00
5:53 AM,53.1,48.9,86,29.62,9.0,SSW,3.5,-,0.03,Rain,Light Rain,210,2013-09-11 13:53:00
6:13 AM,53.6,50.0,88,29.63,10.0,Calm,Calm,-,0.01,Rain,Light Rain,0,2013-09-11 14:13:00
6:33 AM,53.6,50.0,88,29.63,9.0,Calm,Calm,-,0.02,Rain,Light Rain,0,2013-09-11 14:33:00
6:51 AM,55.4,50.0,82,29.64,10.0,WSW,9.2,-,0.02,,Overcast,240,2013-09-11 14:51:00
6:53 AM,54.0,50.0,86,29.64,10.0,WSW,10.4,-,0.02,Rain,Light Rain,250,2013-09-11 14:53:00
7:39 AM,53.6,50.0,88,29.66,5.0,West,9.2,-,0.03,Rain,Light Rain,260,2013-09-11 15:39:00
7:51 AM,53.6,50.0,88,29.66,5.0,WSW,12.7,-,0.03,Rain,Light Rain,240,2013-09-11 15:51:00
7:53 AM,53.1,48.9,86,29.66,5.0,WSW,9.2,-,0.03,Rain,Light Rain,240,2013-09-11 15:53:00
8:32 AM,53.6,48.2,82,29.67,3.0,WSW,9.2,-,0.00,Rain,Light Rain,250,2013-09-11 16:32:00
8:53 AM,53.1,48.9,86,29.68,5.0,West,9.2,-,0.00,Rain,Light Rain,260,2013-09-11 16:53:00
9:53 AM,53.1,48.0,83,29.71,10.0,WSW,11.5,-,0.00,,Mostly Cloudy,240,2013-09-11 17:53:00
10:53 AM,54.0,46.9,77,29.74,10.0,SW,15.0,-,N/A,,Mostly Cloudy,230,2013-09-11 18:53:00
11:53 AM,55.9,46.9,72,29.77,10.0,SW,15.0,-,N/A,,Partly Cloudy,220,2013-09-11 19:53:00
12:53 PM,55.9,45.0,67,29.79,10.0,SW,16.1,-,N/A,,Scattered Clouds,230,2013-09-11 20:53:00
1:53 PM,57.0,45.0,64,29.81,10.0,WSW,13.8,-,N/A,,Scattered Clouds,240,2013-09-11 21:53:00
2:53 PM,57.9,44.1,60,29.82,10.0,SW,12.7,-,N/A,,Scattered Clouds,230,2013-09-11 22:53:00
3:53 PM,57.9,45.0,62,29.83,10.0,WSW,11.5,-,N/A,,Partly Cloudy,240,2013-09-11 23:53:00
4:53 PM,57.0,46.9,69,29.84,10.0,West,12.7,-,N/A,,Partly Cloudy,270,2013-09-12 00:53:00
5:53 PM,57.0,45.0,64,29.84,10.0,West,11.5,-,N/A,,Partly Cloudy,270,2013-09-12 01:53:00
6:53 PM,57.0,46.9,69,29.85,10.0,West,6.9,-,N/A,,Clear,270,2013-09-12 02:53:00
7:53 PM,55.0,44.1,67,29.85,10.0,West,8.1,-,N/A,,Clear,280,2013-09-12 03:53:00
8:53 PM,54.0,43.0,66,29.87,10.0,WSW,6.9,-,N/A,,Clear,250,2013-09-12 04:53:00
9:53 PM,54.0,45.0,72,29.89,10.0,West,4.6,-,N/A,,Overcast,270,2013-09-12 05:53:00
10:53 PM,53.1,43.0,69,29.90,10.0,Calm,Calm,-,N/A,,Scattered Clouds,0,2013-09-12 06:53:00
11:53 PM,54.0,42.1,64,29.91,10.0,SSW,6.9,-,N/A,,Clear,200,2013-09-12 07:53:00